PROPCUBE 3

Last updated on Mon Sep 21 2026 00:03:44 GMT+0000 (Coordinated Universal Time)

1 40973U 15058K 26263.56204472 .00001428 00000+0 12473-3 0 9995 2 40973 64.7675 314.4064 0131936 23.8254 336.8890 14.94781364129050
UTC large
Height (km)
Speed (km/s)
/
Latitude / Longitude
Inclination (degrees)
Orbital Period (minutes)
Azimuth
Elevation
Range (km)
Doppler Factor

Next 0 passes for location: London (51.5072 / 0.1276)

No passes found over London.
PROPCUBE 3